Location: D�derode
(51.8092°N, 10.1065°E)
Time: 07:05:44
(UTC+00:00)

CZ-4 R/B - Pass Details

Date: 01 December 2020
Orbit: 532 x 597 km, 97.7° (Epoch: 23 January)

Event Time Altitude Azimuth Distance (km) Brightness Sun altitude
Exits shadow 19:17:05 12° 267° (W) 1,712 4.5 -36.7°
Maximum altitude 19:17:30 13° 273° (W) 1,705 4.5 -36.8°
Drops below altitude 10° 19:19:18 10° 300° (WNW) 1,883 4.7 -37.1°
Sets 19:22:41 0° 330° (NNW) 2,805 5.4 -37.6°
